Station SBLM4 - Saginaw Bay Light #1, MI Image indicating link to RSS feed of recent meteorological observations for station SBLM4


Conditions at SBLM4 as of
(4:00 am EDT)
0800 GMT on 04/21/2024:
     

Click on the graph icon in the table below to see a time series plot of the last five days of that observation.

5-day plot - Wind Direction Wind Direction (WDIR): W ( 280 deg true )
5-day plot - Wind Speed Wind Speed (WSPD): 15.0 kts
5-day plot - Wind Gust Wind Gust (GST): 18.1 kts
5-day plot - Atmospheric Pressure Atmospheric Pressure (PRES):30.05 in
5-day plot - Pressure Tendency Pressure Tendency (PTDY):-0.03 in ( Falling )
5-day plot - Air Temperature Air Temperature (ATMP): 39.0 °F
5-day plot - Wind Chill Wind Chill (CHILL): 29.8 °F
5-day plot - Wind Speed at 10 Meters Wind Speed at 10 meters (WSPD10M): 13.6 kts
5-day plot - Wind Speed at 20 Meters Wind Speed at 20 meters (WSPD20M): 15.5 kts
5-day plot -  Wind Speed, Wind Gust and Atmospheric Pressure Combined plot of Wind Speed, Gust, and Air Pressure
Previous observations
TIME
(EDT)
5-day plot - Wind Direction
WDIR
 
5-day plot - Wind Speed
WSPD
kts
5-day plot - Wind Gust
GST
kts
5-day plot - Wave Height
WVHT
ft
5-day plot - Dominant Wave Period
DPD
sec
5-day plot - Average Wave Period
APD
sec
5-day plot - Mean Wave Direction
MWD
 
5-day plot - Atmospheric Pressure
PRES
in
5-day plot - Pressure Tendency
PTDY
in
5-day plot - Air Temperature
ATMP
°F
5-day plot - Water Temperature
WTMP
°F
5-day plot - Dew Point
DEWP
°F
5-day plot - Salinity
SAL
psu
5-day plot - Visibility
VIS
nmi
5-day plot - Tide (above MLLW)
TIDE
ft
2024-04-21 03:50 am W 14.0 18.1----30.05- 39.2-----
2024-04-21 03:40 am W 15.0 18.1----30.05- 39.2-----
2024-04-21 03:30 am W 14.0 17.1----30.05- 39.0-----
2024-04-21 03:20 am W 14.0 15.9----30.04- 39.2-----
2024-04-21 03:10 am W 14.0 18.1----30.05- 39.0-----
2024-04-21 03:00 am W 14.0 17.1----30.05-0.03 39.2-----
2024-04-21 02:50 am W 15.0 17.1----30.05- 38.8-----
2024-04-21 02:40 amWNW 12.0 17.1----30.05- 39.2-----
2024-04-21 02:30 am W 14.0 17.1----30.05- 39.2-----
2024-04-21 02:20 am W 13.0 17.1----30.06- 39.0-----
2024-04-21 02:10 am W 13.0 15.9----30.06- 39.2-----
2024-04-21 02:00 amWNW 13.0 15.9----30.06-0.03 39.4-----
2024-04-21 01:50 am W 11.1 15.9----30.07- 39.4-----
2024-04-21 01:40 amWNW 13.0 15.0----30.07- 39.2-----
2024-04-21 01:30 amWNW 12.0 15.0----30.07- 39.4-----
2024-04-21 01:20 amWNW 13.0 15.9----30.07- 39.2-----
2024-04-21 01:10 am W 12.0 15.0----30.08- 39.4-----
2024-04-21 01:00 am NW 11.1 15.0----30.08+0.00 39.6-----
2024-04-21 12:50 am NW 13.0 17.1----30.09- 39.4-----
2024-04-21 12:40 am NW 15.0 19.0----30.08- 39.4-----
2024-04-21 12:30 amWNW 18.1 22.9----30.08- 39.2-----
2024-04-21 12:20 amWNW 15.9 19.0----30.08- 39.4-----
2024-04-21 12:10 amWNW 17.1 22.9----30.08- 39.6-----
2024-04-21 12:00 amWNW 15.9 21.0----30.08+0.01 39.4-----
2024-04-20 11:50 pmWNW 15.9 22.0----30.08- 39.4-----
2024-04-20 11:40 pm NW 15.0 21.0----30.09- 39.4-----
2024-04-20 11:30 pm NW 15.0 21.0----30.09- 39.2-----
2024-04-20 11:20 pm NW 15.9 22.0----30.10- 39.6-----
2024-04-20 11:10 pm NW 18.1 22.9----30.10- 39.6-----
2024-04-20 11:00 pm NW 21.0 24.1----30.09+0.03 39.6-----
2024-04-20 10:50 pmWNW 22.0 24.1----30.09- 39.6-----
2024-04-20 10:40 pmWNW 20.0 24.1----30.09- 39.7-----
2024-04-20 10:30 pm NW 18.1 25.1----30.09- 39.7-----
2024-04-20 10:20 pmWNW 20.0 24.1----30.09- 40.1-----
2024-04-20 10:10 pm NW 19.0 25.1----30.09- 39.9-----
2024-04-20 10:00 pm NW 22.9 25.1----30.08+0.01 39.9-----
2024-04-20 09:50 pm NW 22.0 25.1----30.08- 40.5-----
2024-04-20 09:40 pm NW 22.0 25.1----30.08- 40.6-----
2024-04-20 09:30 pm NW 21.0 24.1----30.07- 41.0-----
2024-04-20 09:20 pmWNW 18.1 22.0----30.07- 41.9-----
2024-04-20 09:10 pmWNW 21.0 22.9----30.07- 41.9-----
2024-04-20 09:00 pmWNW 19.0 22.9----30.07+0.00 42.3-----
2024-04-20 08:50 pmWNW 19.0 24.1----30.07- 42.4-----
2024-04-20 08:40 pmWNW 20.0 22.9----30.07- 42.6-----
2024-04-20 08:30 pm W 18.1 22.0----30.06- 43.0-----
2024-04-20 08:20 pmWNW 18.1 22.0----30.06- 42.8-----
2024-04-20 08:10 pm W 18.1 22.9----30.07- 43.0-----
2024-04-20 08:00 pm W 19.0 22.0----30.06+0.00 43.2-----
2024-04-20 07:50 pm W 19.0 22.0----30.06- 43.0-----
2024-04-20 07:40 pm W 19.0 22.9----30.06- 43.2-----
2024-04-20 07:30 pm W 17.1 21.0----30.06- 43.0-----
2024-04-20 07:20 pm W 17.1 22.9----30.06- 43.5-----
2024-04-20 07:10 pm W 15.0 20.0----30.06- 43.5-----
2024-04-20 07:00 pm W 19.0 22.9----30.07+0.01 43.2-----
2024-04-20 06:50 pm W 17.1 22.0----30.07- 43.2-----
2024-04-20 06:40 pm W 15.0 22.0----30.06- 43.3-----
2024-04-20 06:30 pm W 18.1 22.9----30.06- 43.2-----
2024-04-20 06:20 pm W 15.9 21.0----30.07- 43.0-----
2024-04-20 06:10 pm W 15.9 19.0----30.07- 43.0-----
2024-04-20 06:00 pm W 15.0 19.0----30.07+0.01 43.2-----
2024-04-20 05:50 pm W 17.1 22.0----30.06- 42.4-----
2024-04-20 05:40 pm W 19.0 22.0----30.06- 42.8-----
2024-04-20 05:30 pm W 20.0 22.9----30.06- 42.8-----
2024-04-20 05:20 pm W 19.0 22.0----30.06- 43.0-----
2024-04-20 05:10 pm W 20.0 22.9----30.06- 42.8-----
2024-04-20 05:00 pmWNW 19.0 22.0----30.06+0.00 43.0-----
2024-04-20 04:50 pm W 18.1 22.0----30.06- 43.0-----
2024-04-20 04:40 pm W 15.9 20.0----30.06- 42.6-----
2024-04-20 04:30 pm W 15.9 22.0----30.06- 42.4-----
2024-04-20 04:20 pm W 18.1 22.0----30.06- 42.3-----
2024-04-20 04:10 pm W 18.1 22.0----30.07- 42.1-----
2024-04-20 04:00 pm W 22.0 25.1----30.06+0.00 42.1-----
2024-04-20 03:50 pmWNW 18.1 22.9----30.06- 42.3-----
2024-04-20 03:40 pm W 20.0 22.0----30.06- 42.1-----
2024-04-20 03:30 pm W 17.1 20.0----30.06- 42.3-----
2024-04-20 03:20 pm W 19.0 22.0----30.06- 41.7-----
2024-04-20 03:10 pmWNW 19.0 22.9----30.06- 42.1-----
2024-04-20 03:00 pmWNW 20.0 24.1----30.06+0.00 41.7-----
2024-04-20 02:50 pm W 15.9 22.0----30.06- 41.7-----
2024-04-20 02:40 pm W 18.1 21.0----30.06- 41.5-----
2024-04-20 02:30 pm W 18.1 21.0----30.06- 41.4-----
2024-04-20 02:20 pm W 15.0 19.0----30.05- 41.4-----
2024-04-20 02:10 pm W 14.0 18.1----30.06- 43.2-----
2024-04-20 02:00 pmWNW 15.0 19.0----30.06+0.02 41.2-----
2024-04-20 01:50 pm W 17.1 21.0----30.06- 41.0-----
2024-04-20 01:40 pm W 17.1 20.0----30.06- 40.6-----
2024-04-20 01:30 pm W 17.1 22.9----30.06- 40.6-----
2024-04-20 01:20 pm W 19.0 22.0----30.06- 41.0-----
2024-04-20 01:10 pm W 17.1 22.9----30.06- 40.1-----
2024-04-20 01:00 pmWNW 19.0 22.9----30.06+0.02 40.6-----
2024-04-20 12:50 pm W 14.0 20.0----30.06- 40.8-----
2024-04-20 12:40 pmWNW 13.0 20.0----30.06- 40.3-----
2024-04-20 12:30 pmWNW 17.1 21.0----30.06- 40.5-----
2024-04-20 12:20 pmWNW 18.1 20.0----30.06- 40.1-----
2024-04-20 12:10 pm W 20.0 29.9----30.06- 40.1-----
2024-04-20 12:00 pmWNW 15.9 21.0----30.06+0.03 39.9-----
2024-04-20 11:50 am W 15.0 21.0----30.05- 39.6-----
2024-04-20 11:40 am W 17.1 22.9----30.05- 39.7-----
2024-04-20 11:30 am W 20.0 24.1----30.05- 39.2-----
2024-04-20 11:20 am W 15.0 22.0----30.05- 38.8-----
2024-04-20 11:10 am W 19.0 24.1----30.04- 39.2-----
2024-04-20 11:00 am W 17.1 19.0----30.04+0.03 38.5-----
2024-04-20 10:50 am W 15.9 24.1----30.05- 38.5-----
2024-04-20 10:40 am W 18.1 22.9----30.05- 38.3-----
2024-04-20 10:30 am W 18.1 22.0----30.05- 37.8-----
2024-04-20 10:20 am W 19.0 22.0----30.04- 37.8-----
2024-04-20 10:10 am W 15.9 21.0----30.04- 37.8-----
2024-04-20 10:00 am W 17.1 22.9----30.04+0.05 37.4-----
2024-04-20 09:50 am W 17.1 21.0----30.03- 37.8-----
2024-04-20 09:40 am W 18.1 22.9----30.03- 37.4-----
2024-04-20 09:30 am W 19.0 22.9----30.03- 37.4-----
2024-04-20 09:20 am W 19.0 22.9----30.03- 37.2-----
2024-04-20 09:10 am W 18.1 22.0----30.03- 37.4-----
2024-04-20 09:00 am W 17.1 21.0----30.03+0.05 37.6-----
2024-04-20 08:50 amWNW 17.1 25.1----30.02- 37.6-----
2024-04-20 08:40 amWNW 19.0 24.1----30.02- 37.4-----
2024-04-20 08:30 am W 21.0 24.1----30.02- 37.8-----
2024-04-20 08:20 am W 22.0 25.1----30.02- 37.4-----
2024-04-20 08:10 am W 21.0 27.0----30.01- 37.6-----
2024-04-20 08:00 am W 21.0 26.0----30.01+0.04 37.4-----
2024-04-20 07:50 am W 22.0 26.0----30.00- 37.6-----
2024-04-20 07:40 am W 21.0 26.0----30.00- 37.4-----
2024-04-20 07:30 am W 20.0 25.1----29.99- 37.8-----
2024-04-20 07:20 am W 20.0 25.1----29.99- 37.9-----
2024-04-20 07:10 am W 19.0 24.1----29.99- 37.6-----
2024-04-20 07:00 am W 19.0 26.0----29.99+0.03 37.8-----
2024-04-20 06:50 am W 20.0 22.9----29.99- 37.6-----
2024-04-20 06:40 am W 21.0 25.1----29.98- 37.6-----
2024-04-20 06:30 am W 21.0 26.0----29.98- 37.9-----
2024-04-20 06:20 am W 20.0 25.1----29.97- 37.9-----
2024-04-20 06:10 am W 22.9 27.0----29.98- 37.8-----
2024-04-20 06:00 am W 22.0 25.1----29.98+0.02 37.9-----
2024-04-20 05:50 am W 21.0 25.1----29.98- 37.9-----
2024-04-20 05:40 am W 21.0 25.1----29.97- 38.3-----
2024-04-20 05:30 am W 22.9 28.0----29.97- 37.9-----
2024-04-20 05:20 am W 24.1 29.9----29.97- 38.3-----
2024-04-20 05:10 am W 25.1 28.0----29.98- 38.1-----
2024-04-20 05:00 am W 24.1 28.0----29.97+0.00 38.5-----
2024-04-20 04:50 am W 22.0 28.9----29.97- 38.7-----